Regional Weather Roundup
Issued by NWS

Home | Current Version | Previous Version | Graphics & Text | Print | Product List | Glossary On
Versions: 1 2 3 4 5 6 7 8 9 10 11 12 13 14 15 16 17 18 19 20 21 22 23 24 25 26 27 28 29 30 31 32 33 34 35 36 37 38 39 40 41 42 43 44 45 46 47 48 49 50
000
ASUS45 KBOI 232010
RWRID

IDAHO REGIONAL WEATHER ROUNDUP
NATIONAL WEATHER SERVICE BOISE ID
100 PM MST FRI FEB 23 2018

NOTE: "FAIR" INDICATES FEW OR NO CLOUDS BELOW 12000 FEET
WITH NO SIGNIFICANT WEATHER AND/OR OBSTRUCTIONS TO VISIBILITY

IDZ012-014-232100-
SOUTHWEST IDAHO


CITY           SKY/WX    TMP DP  RH WIND       PRES   REMARKS
BOISE          SUNNY     26  12  55 NW16      30.29F WCI  14
CALDWELL       SUNNY     29  11  47 W7G18     30.32F WCI  22
MOUNTAIN HOME  SUNNY     28  11  49 NW21G28   30.26S WCI  14
$$

IDZ016-017-232100-
SOUTHCENTRAL IDAHO


CITY           SKY/WX    TMP DP  RH WIND       PRES   REMARKS
BURLEY         MIX PCPN  20  12  71 W14G23    30.17S WCI   7
JEROME         PTSUNNY   24  15  68 SW18G26   30.18F WCI  10
TWIN FALLS     PTSUNNY   22  13  68 W18       30.19S WCI   7
$$

IDZ019>023-232100-
SOUTHEAST IDAHO


CITY           SKY/WX    TMP DP  RH WIND       PRES   REMARKS
IDAHO FALLS    PTSUNNY   20  11  68 SW10G17   30.09F WCI   9
POCATELLO      LGT SNOW  18  13  80 SW17      30.13F WCI   3
REXBURG        PTSUNNY   24  14  65 SW7       30.06F WCI  16
$$

IDZ006-010-011-018-031-032-232100-
CENTRAL IDAHO MOUNTAINS


CITY           SKY/WX    TMP DP  RH WIND       PRES   REMARKS
MCCALL         SUNNY     16   4  59 S3        30.11F
HAILEY         MOSUNNY   21  10  63 SE10      30.07F WCI  10
STANLEY          N/A     11  -1  58 CALM      30.03F
SALMON         SUNNY     23   9  55 N5        30.14F WCI  17
CHALLIS        SUNNY     23   1  38 CALM      30.06F
$$

IDZ002-004-006-007-026-232100-
NORTHERN IDAHO


CITY           SKY/WX    TMP DP  RH WIND       PRES   REMARKS
LEWISTON       SUNNY     34  14  43 S12       30.32F WCI  25
LOWELL           N/A     30  17  58 S3        30.35F
COEUR D`ALENE  CLOUDY    27  15  61 W9        30.27F WCI  18
MULLAN PASS    LGT SNOW   8   4  83 SW10G20   29.98F FOG     WCI  -6
$$



USA.gov is the U.S. government's official web portal to all federal, state and local government web resources and services.